TimeCST,TemperatureF,Dew PointF,Humidity,Sea Level PressureIn,VisibilityMPH,Wind Direction,Wind SpeedMPH,Gust SpeedMPH,PrecipitationIn,Events,Conditions,WindDirDegrees,DateUTC
12:15 AM,-3.5,-6.9,85,30.33,10.0,Calm,Calm,-,N/A,,Clear,0,2013-02-09 06:15:00
12:35 AM,-1.8,-5.1,86,30.33,10.0,Calm,Calm,-,N/A,,Clear,0,2013-02-09 06:35:00
12:55 AM,-2.7,-6.2,85,30.33,10.0,Calm,Calm,-,N/A,,Clear,0,2013-02-09 06:55:00
1:15 AM,-3.3,-6.7,85,30.34,10.0,Calm,Calm,-,N/A,,Clear,0,2013-02-09 07:15:00
1:35 AM,-4.5,-8.1,84,30.33,10.0,Calm,Calm,-,N/A,,Clear,0,2013-02-09 07:35:00
1:55 AM,-4.0,-7.8,84,30.33,10.0,Calm,Calm,-,N/A,,Clear,0,2013-02-09 07:55:00
2:15 AM,-4.7,-8.5,84,30.33,10.0,Calm,Calm,-,N/A,,Clear,0,2013-02-09 08:15:00
2:35 AM,-5.8,-9.4,84,30.32,10.0,Calm,Calm,-,N/A,,Clear,0,2013-02-09 08:35:00
2:55 AM,-5.1,-8.7,84,30.31,10.0,Calm,Calm,-,N/A,,Clear,0,2013-02-09 08:55:00
3:15 AM,-6.0,-9.6,84,30.31,7.0,Calm,Calm,-,N/A,,Clear,0,2013-02-09 09:15:00
3:35 AM,-5.8,-9.6,84,30.32,10.0,Calm,Calm,-,N/A,,Clear,0,2013-02-09 09:35:00
3:55 AM,-5.8,-9.4,84,30.31,10.0,Calm,Calm,-,N/A,,Clear,0,2013-02-09 09:55:00
4:15 AM,-7.1,-11.0,83,30.30,10.0,Calm,Calm,-,N/A,,Clear,0,2013-02-09 10:15:00
4:35 AM,-6.7,-10.7,83,30.30,10.0,Calm,Calm,-,N/A,,Clear,0,2013-02-09 10:35:00
4:55 AM,-7.2,-11.2,83,30.29,10.0,Calm,Calm,-,N/A,,Clear,0,2013-02-09 10:55:00
5:15 AM,-6.2,-9.9,84,30.29,10.0,Calm,Calm,-,N/A,,Clear,0,2013-02-09 11:15:00
5:35 AM,-4.9,-8.5,84,30.29,10.0,Calm,Calm,-,N/A,,Clear,0,2013-02-09 11:35:00
6:15 AM,-5.3,-8.9,84,30.28,7.0,Calm,Calm,-,N/A,,Scattered Clouds,0,2013-02-09 12:15:00
6:35 AM,-3.1,-6.5,85,30.28,10.0,SE,3.5,-,N/A,,Clear,130,2013-02-09 12:35:00
6:55 AM,1.4,-1.7,87,30.28,5.0,Calm,Calm,-,N/A,Snow,Light Snow,0,2013-02-09 12:55:00
7:15 AM,-2.4,-6.0,85,30.28,2.5,South,4.6,-,N/A,Snow,Light Snow,170,2013-02-09 13:15:00
7:35 AM,4.6,1.6,87,30.28,1.5,South,6.9,-,N/A,Snow,Light Snow,180,2013-02-09 13:35:00
7:55 AM,4.6,1.9,89,30.28,1.2,South,5.8,-,N/A,Snow,Light Snow,180,2013-02-09 13:55:00
8:15 AM,5.5,2.8,89,30.27,1.2,South,6.9,-,N/A,Snow,Light Snow,180,2013-02-09 14:15:00
8:35 AM,6.4,3.7,89,30.26,0.8,South,6.9,-,N/A,Snow,Light Snow,180,2013-02-09 14:35:00
8:55 AM,7.7,5.4,90,30.25,0.5,South,4.6,-,N/A,Snow,Light Snow,190,2013-02-09 14:55:00
9:15 AM,9.1,6.8,90,30.25,0.8,SSW,4.6,-,N/A,Snow,Light Snow,200,2013-02-09 15:15:00
9:35 AM,10.0,7.7,90,30.25,1.0,SSW,3.5,-,N/A,Snow,Light Snow,200,2013-02-09 15:35:00
9:55 AM,10.9,8.6,90,30.24,1.2,South,4.6,-,N/A,Snow,Light Snow,170,2013-02-09 15:55:00
10:15 AM,12.2,10.2,92,30.24,2.5,South,5.8,-,N/A,Snow,Light Snow,190,2013-02-09 16:15:00
10:35 AM,13.3,11.3,92,30.23,1.5,South,6.9,-,N/A,Snow,Light Snow,190,2013-02-09 16:35:00
10:55 AM,14.7,12.9,93,30.23,2.5,South,8.1,-,N/A,Snow,Light Snow,190,2013-02-09 16:55:00
11:15 AM,14.9,13.1,93,30.22,3.0,SSW,10.4,17.3,N/A,Snow,Light Snow,200,2013-02-09 17:15:00
11:35 AM,15.3,13.5,93,30.21,4.0,South,10.4,16.1,N/A,,Overcast,190,2013-02-09 17:35:00
11:55 AM,15.8,14.0,93,30.20,4.0,South,11.5,-,N/A,,Overcast,180,2013-02-09 17:55:00
12:15 PM,16.2,14.5,93,30.19,5.0,South,12.7,-,N/A,,Overcast,180,2013-02-09 18:15:00
12:35 PM,16.5,14.9,93,30.18,7.0,South,11.5,-,N/A,,Overcast,180,2013-02-09 18:35:00
12:55 PM,17.1,15.4,93,30.18,7.0,South,13.8,18.4,N/A,,Overcast,170,2013-02-09 18:55:00
1:15 PM,17.6,16.3,95,30.17,5.0,South,12.7,-,N/A,,Overcast,180,2013-02-09 19:15:00
1:35 PM,18.1,16.7,94,30.16,7.0,South,10.4,17.3,N/A,,Overcast,180,2013-02-09 19:35:00
1:55 PM,18.9,17.6,95,30.16,7.0,South,11.5,-,N/A,,Overcast,190,2013-02-09 19:55:00
2:15 PM,19.4,18.1,95,30.15,7.0,South,11.5,18.4,N/A,,Overcast,180,2013-02-09 20:15:00
2:35 PM,19.9,18.5,94,30.14,7.0,South,8.1,-,N/A,,Overcast,170,2013-02-09 20:35:00
2:55 PM,20.1,18.9,95,30.14,10.0,South,8.1,-,N/A,,Overcast,170,2013-02-09 20:55:00
3:15 PM,20.5,19.2,95,30.13,10.0,South,10.4,-,N/A,,Overcast,180,2013-02-09 21:15:00
3:35 PM,21.0,19.2,93,30.13,10.0,SSE,8.1,-,N/A,,Overcast,150,2013-02-09 21:35:00
3:55 PM,21.6,19.0,90,30.12,10.0,SSE,8.1,-,N/A,,Overcast,160,2013-02-09 21:55:00
4:15 PM,22.1,18.7,87,30.11,10.0,SSE,5.8,-,N/A,,Overcast,150,2013-02-09 22:15:00
4:35 PM,22.5,18.9,86,30.11,10.0,SSE,4.6,-,N/A,,Overcast,160,2013-02-09 22:35:00
4:55 PM,22.5,19.0,87,30.10,10.0,SSE,4.6,-,N/A,,Overcast,160,2013-02-09 22:55:00
5:15 PM,22.6,19.0,86,30.10,10.0,SSE,8.1,-,N/A,,Overcast,150,2013-02-09 23:15:00
5:35 PM,22.6,19.2,87,30.09,10.0,SSE,6.9,-,N/A,,Overcast,150,2013-02-09 23:35:00
5:55 PM,22.6,19.4,87,30.09,10.0,SSE,5.8,-,N/A,,Overcast,160,2013-02-09 23:55:00
6:15 PM,22.8,19.4,87,30.08,10.0,SE,5.8,-,N/A,,Overcast,140,2013-02-10 00:15:00
6:35 PM,23.0,19.9,88,30.08,10.0,SSE,8.1,-,N/A,,Overcast,160,2013-02-10 00:35:00
6:55 PM,23.0,20.1,89,30.08,10.0,SSE,6.9,-,N/A,,Overcast,150,2013-02-10 00:55:00
7:35 PM,23.4,20.3,88,30.07,10.0,South,9.2,-,N/A,,Overcast,170,2013-02-10 01:35:00
7:55 PM,23.4,20.3,88,30.06,10.0,SSE,9.2,-,N/A,,Overcast,150,2013-02-10 01:55:00
8:15 PM,23.4,20.3,88,30.06,10.0,SSE,9.2,-,N/A,,Overcast,160,2013-02-10 02:15:00
8:35 PM,23.4,20.3,88,30.06,10.0,South,9.2,-,N/A,,Overcast,170,2013-02-10 02:35:00
8:55 PM,23.4,20.3,88,30.06,10.0,South,9.2,-,N/A,,Overcast,170,2013-02-10 02:55:00
9:15 PM,23.4,20.3,88,30.07,10.0,South,8.1,-,N/A,,Overcast,170,2013-02-10 03:15:00
9:35 PM,23.5,20.5,88,30.06,10.0,South,10.4,-,N/A,,Overcast,170,2013-02-10 03:35:00
9:55 PM,23.5,20.7,89,30.06,10.0,SSE,6.9,-,N/A,,Overcast,160,2013-02-10 03:55:00
10:15 PM,23.4,20.3,88,30.06,10.0,South,5.8,-,N/A,,Overcast,170,2013-02-10 04:15:00
10:55 PM,23.0,20.3,89,30.05,10.0,South,6.9,-,N/A,,Overcast,170,2013-02-10 04:55:00
10:56 PM,23.0,19.4,86,30.05,10.0,South,8.1,-,N/A,,Overcast,170,2013-02-10 04:56:00
11:15 PM,23.0,20.3,89,30.04,10.0,SSE,8.1,-,N/A,,Overcast,150,2013-02-10 05:15:00
11:35 PM,23.0,20.3,89,30.04,10.0,SSE,8.1,-,N/A,,Overcast,160,2013-02-10 05:35:00
11:55 PM,23.0,20.3,89,30.04,10.0,SSE,4.6,-,N/A,,Overcast,160,2013-02-10 05:55:00